Tracking 19489 objects as of 23-Jan-2019
HD Live streaming from Space Station
objects crossing your sky now

SL-3 R/B

Track SL-3 R/B now!
10-day predictions
SL-3 R/B is classified as:


NORAD ID: 13068
Int'l Code: 1982-013B
Perigee: 536.9 km
Apogee: 566.7 km
Inclination: 81.2 °
Period: 95.5 minutes
Semi major axis: 6922 km
RCS: 5.3655 m2 (large)
Launch date: February 19, 1982
Source: Commonwealth of Independent States (former USSR) (CIS)
Launch site: PLESETSK MISSILE AND SPACE COMPLEX (PKMTR)

Note: This is a ROCKET BODY
aabbcc
Your satellite tracking list
Your tracking list is empty




NASA's NSSDC Master Catalog

Two Line Element Set (TLE):
1 13068U 82013B   19022.21992192 -.00000139  00000-0 -10752-4 0  9995
2 13068  81.2025 275.5477 0021533 183.5224 176.5853 15.07241286 11467
Source of the keplerian elements: AFSPC